CAPE
0 0 0 0 23 318 344 37 2 0 2 0 46 77 33 11 24 13 0 0 0 0 0 0 0 0 0 0 0 0 0 0 0 3 2 1 0 0 0 0 0 0 5
0 0 0 0 0 0 360 211 51 3 0 0 21 14 9 16 6 10 0 0 0 0 0 0 1 0 0 0 0 0 0 0 0 1 3 1 0 0 0 0 0 0 0
0 0 0 0 0 0 0 157 92 2 0 0 6 27 30 39 28 7 0 0 2 0 0 0 1 0 1 0 0 0 0 0 0 0 1 3 0 0 0 0 0 0 0
0 0 0 0 0 0 1 48 46 0 0 79 61 39 30 7 0 0 0 0 0 1 0 0 0 0 0 0 0 0 0 0 0 0 0 0 0 0 0 0 0 0 0
0 0 0 0 0 0 0 11 60 49 36 66 35 10 7 0 0 0 0 0 0 0 0 0 0 0 1 0 0 0 0 0 0 0 0 0 0 0 0 0 0 0 0
0 0 0 0 3 10 0 4 1 20 36 28 20 5 1 1 2 0 0 0 0 0 1 1 3 4 3 2 0 0 0 0 0 0 0 0 0 0 0 0 0 0 0
0 0 0 0 2 9 31 63 1 7 20 15 2 1 2 1 5 3 1 0 0 0 0 0 0 0 0 0 0 0 0 0 0 0 0 0 0 0 0 0 0 0 0
0 0 0 0 3 3 33 22 1 8 2 0 1 1 1 3 6 2 0 0 0 0 0 0 0 0 0 0 0 0 0 0 0 0 0 0 0 0 0 0 0 0 0
0 0 0 0 0 2 14 1 1 0 1 2 1 0 0 1 2 0 0 0 0 0 0 0 0 0 0 0 0 0 0 0 1 1 0 0 0 0 0 0 0 0 0
0 0 0 0 0 1 3 1 1 1 1 1 1 0 1 0 0 0 0 0 0 0 0 0 0 0 0 0 0 0 0 0 0 0 0 0 0 0 0 0 0 0 0
1 1 0 0 0 1 0 1 1 1 1 0 1 1 0 0 0 0 0 0 0 0 0 0 0 0 0 0 0 0 0 0 0 0 0 0 0 0 0 0 0 0 0
2 0 0 0 0 4 0 0 0 0 0 1 1 1 0 0 0 0 0 0 0 0 0 0 0 0 0 0 0 0 0 0 0 0 0 0 0 0 0 0 0 0 0
9 1 0 0 1 1 0 0 1 0 0 1 1 1 1 0 0 0 0 0 0 0 0 0 0 0 0 0 0 0 0 0 0 0 0 0 0 0 0 0 0 0 0
10 0 0 0 3 1 0 0 0 1 1 2 1 1 1 0 0 0 0 0 0 0 4 0 0 0 0 0 0 0 0 0 0 0 0 0 0 0 0 0 0 0 0
14 1 0 1 1 1 0 0 0 0 0 0 0 0 0 0 0 0 0 0 0 0 0 0 0 0 0 0 0 0 0 0 0 0 0 0 0 0 0 0 0 0 0
0 3 0 3 1 1 0 1 0 0 0 0 0 0 0 0 0 0 0 0 0 0 0 0 0 0 0 0 0 0 0 0 0 0 0 0 0 0 0 0 0 0 0
0 1 6 2 1 1 1 0 1 3 1 0 1 0 0 3 2 1 0 0 0 0 0 0 0 0 0 0 0 0 0 0 0 0 0 0 0 0 0 0 0 0 0
0 2 1 1 1 1 0 1 0 1 3 7 7 1 8 9 5 4 0 0 0 0 0 0 0 0 0 0 0 0 0 0 0 0 0 0 0 0 0 0 0 0 0
4 1 1 1 1 1 1 0 1 1 2 3 4 5 8 8 4 0 0 0 0 0 0 0 0 0 0 0 0 0 0 0 0 0 0 0 0 0 0 0 0 0 0
1 0 0 0 0 1 1 1 1 0 1 2 2 0 1 0 0 0 0 0 0 0 0 0 0 0 0 0 0 0 0 0 0 0 0 0 0 0 0 0 0 0 0
0 1 2 0 0 0 0 0 0 0 0 0 0 0 0 0 0 0 0 0 0 0 0 0 0 0 0 0 0 0 0 0 0 0 0 0 0 0 0 0 0 0 0
0 1 0 1 1 1 0 0 0 0 0 0 0 0 0 0 0 0 0 0 0 0 0 0 0 0 0 0 0 0 0 0 0 0 0 0 0 0 0 0 0 0 0
2 1 1 1 1 2 0 0 0 0 0 0 0 0 0 0 0 0 0 0 0 0 0 0 0 0 0 0 0 0 0 0 0 0 0 0 0 0 0 0 0 0 0
2 1 0 1 1 0 0 0 0 0 0 0 0 0 0 0 0 0 0 0 0 0 0 0 0 0 0 0 0 0 0 0 0 0 0 0 0 0 0 0 0 0 0
2 2 1 1 1 0 1 0 0 0 0 0 0 0 0 0 0 0 0 0 0 0 0 0 0 0 0 0 0 0 0 0 0 0 0 0 0 0 0 0 0 0 0
2 1 1 1 1 0 0 0 0 0 0 0 0 0 0 0 0 0 0 0 0 0 0 0 0 0 0 0 0 0 0 0 0 0 0 0 0 0 0 0 0 0 0
CIN
-0 -0 -0 -0 -194 -67 -55 -220 -205 -0 -64 -0 -109 -80 -117 -107 -68 -38 -16 -0 -0 -0 -0 -0 -0 -0 -0 -0 -0 -0 -0 -0 -0 -0 -0 -0 -0 -0 -0 -0 -0 -0 -3
-0 -0 -0 -0 -12 -0 -24 -52 -150 -126 -0 -0 -101 -40 -11 -9 -53 -32 -0 -0 -0 -0 -0 -0 -0 -0 -0 -0 -0 -0 -0 -0 -0 -0 -0 -0 -0 -0 -0 -0 -0 -0 -0
-0 -0 -0 -0 -0 -0 -0 -65 -107 -83 -0 -0 -88 -16 -15 -32 -25 -56 -0 -0 -29 -16 -2 -0 -0 -0 -0 -0 -0 -0 -0 -0 -0 -0 -0 -0 -0 -0 -0 -0 -0 -0 -0
-0 -0 -0 -0 -0 -0 -0 -122 -94 -0 -0 -5 -20 -28 -18 -26 -15 -0 -23 -0 -0 -0 -0 -0 -0 -0 -0 -0 -0 -0 -0 -0 -0 -0 -0 -0 -0 -0 -0 -0 -0 -0 -0
-0 -0 -0 -0 -0 -0 -0 -14 -44 -36 -29 -1 -8 -22 -36 -14 -0 -0 -0 -0 -0 -0 -0 -0 -0 -0 -0 -0 -0 -0 -0 -0 -0 -0 -0 -0 -0 -0 -0 -0 -0 -0 -0
-0 -0 -0 -0 -1 -0 -0 -5 -0 -45 -22 -33 -28 -43 -33 -0 -0 -0 -0 -0 -0 -0 -0 -0 -0 -0 -0 -0 -0 -0 -0 -0 -0 -0 -0 -0 -0 -0 -0 -0 -0 -0 -0
-0 -0 -0 -0 -0 -0 -0 -0 -3 -49 -44 -37 -14 -0 -0 -0 -0 -0 -0 -0 -0 -0 -0 -0 -0 -0 -0 -0 -0 -0 -0 -0 -0 -0 -0 -0 -0 -0 -0 -0 -0 -0 -0
-0 -0 -0 -0 -0 -0 -2 -3 -38 -15 -9 -0 -0 -0 -0 -0 -0 -0 -0 -0 -0 -0 -0 -0 -0 -0 -0 -0 -0 -0 -0 -0 -0 -0 -0 -0 -0 -0 -0 -0 -0 -0 -0
-0 -0 -0 -0 -0 -0 -10 -0 -0 -0 -0 -0 -0 -0 -0 -0 -0 -0 -0 -0 -0 -0 -0 -0 -0 -0 -0 -0 -0 -0 -0 -0 -0 -0 -0 -0 -0 -0 -0 -0 -0 -0 -0
-0 -0 -0 -0 -0 -0 -18 -0 -0 -0 -0 -0 -0 -0 -0 -0 -0 -0 -0 -0 -0 -0 -0 -0 -0 -0 -0 -0 -0 -0 -0 -0 -0 -0 -0 -0 -0 -0 -0 -0 -0 -0 -0
-2 -0 -0 -0 -0 -0 -0 -0 -0 -0 -0 -0 -0 -0 -0 -0 -0 -0 -0 -0 -0 -0 -0 -0 -0 -0 -0 -0 -0 -0 -0 -0 -0 -0 -0 -0 -0 -0 -0 -0 -0 -0 -0
-0 -0 -0 -0 -0 -0 -0 -0 -0 -0 -0 -0 -0 -0 -0 -0 -0 -0 -0 -0 -0 -0 -0 -0 -0 -0 -0 -0 -0 -0 -0 -0 -0 -0 -0 -0 -0 -0 -0 -0 -0 -0 -0
-0 -0 -0 -0 -0 -0 -0 -0 -0 -0 -0 -0 -0 -0 -0 -0 -0 -0 -0 -0 -0 -0 -0 -0 -0 -0 -0 -0 -0 -0 -0 -0 -0 -0 -0 -0 -0 -0 -0 -0 -0 -0 -0
-0 -0 -0 -0 -0 -0 -0 -0 -0 -0 -0 -0 -0 -0 -0 -1 -0 -0 -0 -0 -0 -0 -0 -0 -0 -0 -0 -0 -0 -0 -0 -0 -0 -0 -0 -0 -0 -0 -0 -0 -0 -0 -0
-0 -4 -0 -0 -0 -0 -0 -0 -0 -1 -0 -0 -0 -0 -0 -0 -0 -0 -0 -0 -0 -0 -0 -0 -0 -0 -0 -0 -0 -0 -0 -0 -0 -0 -0 -0 -0 -0 -0 -0 -0 -0 -0
-0 -0 -0 -0 -0 -0 -0 -0 -0 -0 -0 -0 -0 -0 -0 -0 -0 -0 -0 -0 -0 -0 -0 -0 -0 -0 -0 -0 -0 -0 -0 -0 -0 -0 -0 -0 -0 -0 -0 -0 -0 -0 -0
-0 -0 -0 -0 -0 -0 -0 -0 -0 -0 -0 -0 -0 -0 -0 -0 -0 -0 -0 -0 -0 -0 -0 -0 -0 -0 -0 -0 -0 -0 -0 -0 -0 -0 -0 -0 -0 -0 -0 -0 -0 -0 -0
-0 -0 -0 -0 -0 -0 -0 -0 -0 -0 -0 -0 -0 -0 -0 -0 -0 -0 -0 -0 -0 -0 -0 -0 -0 -0 -0 -0 -0 -0 -0 -0 -0 -0 -0 -0 -0 -0 -0 -0 -0 -0 -0
-0 -0 -0 -0 -0 -0 -1 -0 -0 -0 -0 -0 -0 -0 -0 -0 -0 -0 -0 -0 -0 -0 -0 -0 -0 -0 -0 -0 -0 -0 -0 -0 -0 -0 -0 -0 -0 -0 -0 -0 -0 -0 -0
-0 -0 -0 -0 -0 -0 -0 -0 -0 -0 -0 -0 -0 -0 -0 -0 -0 -0 -0 -0 -0 -0 -0 -0 -0 -0 -0 -0 -0 -0 -0 -0 -0 -0 -0 -0 -0 -0 -0 -0 -0 -0 -0
-0 -0 -0 -0 -0 -0 -0 -0 -1 -0 -0 -0 -0 -0 -0 -0 -0 -0 -0 -0 -0 -0 -0 -0 -0 -0 -0 -0 -0 -0 -0 -0 -0 -0 -0 -0 -0 -0 -0 -0 -0 -0 -0
-0 -0 -0 -0 -0 -0 -0 -0 -0 -0 -0 -0 -0 -0 -0 -0 -0 -0 -0 -0 -0 -0 -0 -0 -0 -0 -0 -0 -0 -0 -0 -0 -0 -0 -0 -0 -0 -0 -0 -0 -0 -0 -0
-0 -0 -0 -0 -0 -0 -0 -1 -0 -0 -0 -0 -0 -0 -0 -0 -0 -0 -0 -0 -0 -0 -0 -0 -0 -0 -0 -0 -0 -0 -0 -0 -0 -0 -0 -0 -0 -0 -0 -0 -0 -0 -0
-0 -0 -0 -0 -0 -0 -0 -1 -0 -0 -0 -0 -0 -0 -0 -0 -0 -0 -0 -0 -0 -0 -0 -0 -0 -0 -0 -0 -0 -0 -0 -0 -0 -0 -0 -0 -0 -0 -0 -0 -0 -0 -0
-0 -0 -0 -0 -0 -0 -0 -0 -0 -0 -0 -0 -0 -0 -0 -0 -0 -0 -0 -0 -0 -0 -0 -0 -0 -0 -0 -0 -0 -0 -0 -0 -0 -0 -0 -0 -0 -0 -0 -0 -0 -0 -0
-0 -0 -0 -0 -0 -0 -0 -0 -0 -0 -0 -0 -0 -0 -0 -0 -0 -0 -0 -0 -0 -0 -0 -0 -0 -0 -0 -0 -0 -0 -0 -0 -0 -0 -0 -0 -0 -0 -0 -0 -0 -0 -0
Wind_Speed
10 9 9 12 8 7 1 2 4 4 5 6 7 10 16 19 13 8 10 12 12 9 7 8 7 6 5 4 4 5 6 6 8 3 3 5 6 8 9 10 10 9 10
11 11 10 10 9 7 4 5 7 5 2 3 8 11 11 13 14 12 13 12 12 11 10 9 8 6 8 5 5 7 7 6 7 10 2 4 6 6 7 9 8 8 6
12 12 12 11 13 7 7 8 7 7 3 2 6 11 12 12 12 12 13 12 12 12 11 10 9 9 8 6 6 8 8 8 6 7 5 2 3 3 7 6 6 6 8
12 12 12 13 13 11 11 8 8 9 6 5 8 11 13 12 13 15 14 13 13 12 10 9 7 9 8 9 9 9 9 9 8 8 6 3 3 4 4 5 7 7 6
12 13 13 13 12 14 8 4 6 10 9 8 11 11 13 13 11 15 15 15 14 13 11 10 9 12 17 13 9 10 11 9 7 6 4 4 3 3 3 1 4 3 7
11 12 13 14 11 10 10 8 7 9 11 11 12 14 12 10 24 23 18 15 15 15 12 11 13 19 22 25 24 20 12 9 7 4 2 4 3 2 2 2 2 2 3
11 11 13 14 14 13 6 8 7 10 12 12 13 15 15 16 27 26 26 13 14 14 14 13 13 12 19 18 27 27 24 22 14 6 6 3 3 2 4 4 5 4 3
11 9 11 14 15 17 3 8 9 9 12 13 14 16 16 16 29 28 27 16 14 13 13 13 14 14 15 18 18 17 15 12 10 8 7 5 5 4 6 5 5 5 3
10 11 12 12 15 15 8 3 8 9 12 12 16 18 18 17 29 29 22 16 15 14 12 12 12 17 24 26 18 17 14 12 19 23 22 21 19 17 9 4 3 4 4
10 12 12 13 13 15 5 6 8 11 11 11 14 15 22 18 27 28 21 14 16 12 11 14 21 19 25 23 16 14 14 6 9 10 9 14 15 18 19 8 3 4 3
11 12 12 13 14 15 3 7 11 12 13 13 14 14 15 17 19 26 25 14 12 12 9 11 11 25 25 24 20 12 13 11 15 9 8 8 8 7 6 6 6 5 5
11 11 12 12 9 7 8 7 14 14 14 15 16 13 11 12 21 24 25 22 21 13 12 11 15 27 27 25 17 25 23 14 7 7 7 6 5 4 4 4 6 5 5
11 11 10 11 10 5 9 9 11 13 12 12 13 12 11 10 12 27 28 27 23 15 12 20 28 26 26 21 24 22 15 6 6 8 7 4 2 3 3 4 4 6 6
10 10 8 8 6 4 7 8 10 10 11 11 12 13 12 12 11 11 13 15 25 19 21 15 18 18 18 18 13 10 6 4 6 6 4 3 2 4 4 3 3 3 5
9 6 7 6 4 5 7 8 9 8 14 12 12 14 14 11 10 17 16 11 10 16 16 11 9 8 9 8 7 6 5 5 6 3 6 5 5 4 3 3 3 3 4
10 7 6 4 6 6 10 10 15 15 17 20 21 16 10 20 27 26 26 26 27 27 11 10 9 8 8 7 7 6 4 8 4 5 5 4 5 4 4 3 3 3 3
11 8 5 9 8 9 10 12 13 16 20 20 24 24 26 25 28 27 29 27 24 19 10 8 9 8 7 6 5 5 5 4 4 5 4 4 4 4 4 3 3 2 2
10 12 9 8 9 9 11 12 12 12 13 11 18 22 26 27 27 28 27 22 11 9 7 9 9 7 7 7 6 7 6 5 5 5 4 4 4 3 3 3 3 2 3
9 9 9 8 9 12 11 12 12 13 12 12 12 17 22 27 26 25 17 8 10 8 6 7 7 7 6 6 6 6 6 5 5 5 4 4 4 3 3 3 3 7 6
10 18 12 10 10 10 10 12 12 13 14 12 11 12 12 16 10 6 6 8 9 7 6 8 6 6 6 6 6 6 5 6 5 4 4 4 3 4 4 4 4 3 3
8 10 17 10 10 10 11 11 12 12 12 11 11 11 18 9 8 8 8 7 8 7 7 7 6 6 6 6 6 6 6 5 5 4 4 4 4 4 3 3 3 3 4
8 9 9 10 10 10 10 11 11 12 12 12 11 11 18 7 7 7 8 8 6 6 6 7 6 6 6 6 6 6 6 6 5 4 4 4 4 4 3 3 3 3 3
8 9 9 10 10 16 11 10 11 11 12 12 11 10 8 7 7 7 8 7 7 6 5 7 7 6 4 5 4 5 7 6 5 5 5 4 4 4 3 3 3 3 3
8 10 10 10 10 10 11 11 10 13 12 11 10 9 9 7 7 9 9 8 7 6 5 6 5 8 7 5 4 4 4 5 4 5 7 5 4 5 4 4 3 4 4
8 9 10 10 10 11 12 11 11 11 10 10 10 9 8 8 8 8 8 7 7 7 6 6 5 8 9 9 8 8 9 12 7 8 5 6 6 6 4 4 3 4 4
9 10 9 9 10 10 10 11 11 11 10 10 9 9 9 9 8 9 8 8 7 6 7 5 7 9 10 8 9 11 12 13 9 12 6 5 5 4 4 5 6 3 4
Wind_Direction
333 305 325 343 331 337 278 163 258 277 186 167 156 153 155 145 136 158 141 126 115 111 101 108 97 104 94 80 78 86 88 101 118 96 69 14 32 53 55 57 51 51 55
340 328 332 340 332 335 310 217 210 227 278 186 149 125 131 137 126 154 133 125 124 127 116 108 113 100 87 78 83 90 100 103 125 120 86 49 54 40 55 52 42 36 36
334 335 336 332 335 307 305 272 198 196 206 141 153 133 125 130 136 137 126 125 120 117 119 116 116 111 105 98 88 88 95 100 100 115 111 87 74 50 60 39 30 17 35
330 336 335 327 323 311 293 260 181 180 173 154 145 135 137 135 136 115 114 110 102 102 108 110 107 108 116 103 96 95 101 101 102 106 107 103 95 63 67 73 58 35 30
334 333 325 319 316 316 309 253 160 168 160 151 134 127 128 128 120 115 110 106 105 98 92 95 99 107 102 105 103 100 101 99 92 91 72 59 55 56 92 59 95 75 47
334 330 321 321 323 304 312 309 153 141 138 135 132 127 123 120 116 113 112 109 105 103 100 102 102 102 101 98 95 89 92 109 105 102 75 91 52 68 63 82 85 63 55
325 327 324 327 327 322 235 293 145 134 128 126 127 118 115 117 113 114 110 107 107 110 113 105 98 90 91 92 88 87 83 84 86 102 107 96 91 81 120 73 58 77 86
319 321 325 329 327 326 216 243 110 127 124 125 118 115 114 115 115 113 108 105 100 99 106 108 108 102 100 102 97 89 83 79 77 84 92 100 99 105 96 117 114 108 77
313 326 326 325 322 313 279 148 100 108 121 120 116 114 116 119 121 117 112 102 103 102 98 99 108 108 113 110 102 96 88 80 84 87 86 86 87 104 111 97 61 87 61
325 324 319 318 315 306 302 106 91 90 88 109 110 115 122 121 123 122 116 117 111 106 104 107 107 113 113 107 104 109 100 87 95 81 68 65 61 72 67 60 68 92 101
319 317 311 309 309 307 108 107 102 99 95 98 100 104 108 118 123 122 119 113 117 115 120 108 109 114 111 109 104 105 115 122 101 92 86 75 64 60 54 48 48 77 79
306 307 302 302 304 299 84 106 112 107 105 101 100 96 100 109 118 118 117 115 122 121 116 112 118 115 114 113 110 116 115 105 98 92 87 76 75 64 48 52 54 58 58
290 291 293 303 300 182 120 102 104 113 114 114 109 108 104 102 105 117 117 116 119 111 113 123 120 117 115 110 115 115 104 94 98 90 88 75 66 115 90 47 43 56 52
274 272 280 291 289 157 119 121 116 120 116 120 118 112 111 114 120 116 114 119 121 114 115 106 109 108 108 109 99 91 87 84 96 98 87 78 71 59 61 39 50 33 59
250 241 264 280 124 129 103 118 123 130 136 135 130 131 130 131 136 132 129 125 128 116 107 101 98 97 97 96 84 78 73 71 82 69 86 84 75 72 60 48 45 41 69
221 221 230 167 119 113 102 87 70 104 120 122 125 125 115 129 135 128 128 130 124 119 107 110 108 106 112 112 108 97 80 98 80 88 79 82 86 81 79 58 53 59 67
190 198 181 127 124 118 112 107 103 77 83 105 114 120 127 135 130 131 130 125 124 116 109 114 114 116 115 109 106 107 106 91 94 85 90 89 84 73 90 75 70 60 42
171 180 128 123 126 119 118 117 114 114 110 102 110 122 125 129 131 131 130 122 111 92 107 120 118 120 117 116 114 112 106 98 93 96 89 89 87 90 81 69 59 62 46
157 129 121 121 119 119 118 118 118 115 111 112 117 117 125 126 128 129 128 119 120 113 113 111 115 119 114 115 116 111 111 111 111 104 92 95 94 93 76 63 59 82 79
115 123 122 119 119 120 123 122 121 121 121 122 122 127 134 128 124 117 115 115 113 113 119 118 116 115 116 121 121 118 107 109 107 102 101 98 92 89 90 83 66 70 54
121 122 128 119 124 124 125 125 125 125 125 127 130 141 137 126 135 130 123 114 121 123 125 124 124 121 120 121 119 117 117 115 113 114 112 109 105 90 85 89 80 74 81
119 125 125 124 124 123 123 124 125 125 125 125 127 131 128 117 123 122 116 112 109 112 123 127 127 132 137 137 135 129 126 126 123 120 116 111 106 102 93 88 78 72 74
126 122 123 124 121 122 119 121 125 130 130 131 131 128 125 121 122 123 118 118 118 117 114 119 125 124 120 120 121 131 136 143 145 132 125 119 114 108 101 91 87 73 72
121 126 125 123 126 125 124 126 124 126 132 133 132 130 129 126 126 124 121 120 117 113 114 117 126 136 130 124 123 121 120 125 127 134 127 123 119 114 102 86 83 73 70
121 122 126 128 130 127 125 125 127 131 133 134 131 129 126 126 126 124 123 120 121 124 121 122 123 137 136 135 134 134 142 135 132 130 116 118 121 120 112 100 97 85 81
119 124 126 129 129 131 131 132 134 135 134 134 131 132 134 132 131 131 128 126 126 123 124 125 137 136 135 136 138 144 141 135 130 130 119 116 116 110 103 109 106 94 92